Location: State Camp
(41.2367°N, 77.7828°W)
Time: 04:38:48
(UTC-04:00)

HST - Visible Passes

Search period start: 21 April 2014 00:00
Search period end: 01 May 2014 00:00
Orbit: 548 x 553 km, 28.5° (Epoch: 20 April)

Date Brightness Start Highest point End Pass type
(mag) Time Alt. Az. Time Alt. Az. Time Alt. Az.
21 Apr 3.0 20:55:54 10° SW 20:57:59 13° S 20:59:56 10° SSE visible
22 Apr 3.0 20:49:32 10° SW 20:51:20 13° S 20:53:07 10° SSE visible
23 Apr 3.1 20:43:23 10° SSW 20:44:40 11° SSW 20:45:56 10° S visible
